Regional Weather Roundup
Issued by NWS

Home | Current Version | Previous Version | Text Only | Print | Product List | Glossary On
Versions: 1 2 3 4 5 6 7 8 9 10 11 12 13 14 15 16 17 18 19 20 21 22 23 24 25 26 27 28 29 30 31 32 33 34 35 36 37 38 39 40 41 42 43 44 45 46 47 48 49 50
000
ASUS43 KLMK 301210
RWRKY
KENTUCKY REGIONAL WEATHER ROUNDUP
NATIONAL WEATHER SERVICE LOUISVILLE KY
800 AM EDT SUN AUG 30 2015

NOTE "FAIR" INDICATES FEW OR NO CLOUDS BELOW 12,000 FEET
WITH NO SIGNIFICANT WEATHER AND/OR OBSTRUCTIONS TO VISIBILITY.

KYZ001>023-026-027-061>063-070>075-301300-
WESTERN AND SOUTH CENTRAL KENTUCKY

CITY           SKY/WX    TMP DP  RH WIND       PRES   REMARKS
PADUCAH        CLOUDY    70  68  93 MISG      30.06R FOG
HENDERSON      CLOUDY    72  68  88 S7        30.06R
OWENSBORO      CLOUDY    72  69  90 S8        30.09R
HOPKINSVILLE   PTCLDY    69  66  92 W1        30.10R
BOWLING GREEN  MOCLDY    67  65  93 CALM      30.11R
GLASGOW        MOCLDY    66  66 100 CALM      30.12R
$$

KYZ024-025-028>034-038-045-046-053-301300-
NORTH CENTRAL KENTUCKY

CITY           SKY/WX    TMP DP  RH WIND       PRES   REMARKS
LOUISVILLE/SDF MOCLDY    72  66  81 S5        30.10R
LOUISVILLE/LOU MOCLDY    71  67  87 S3        30.11R
FORT KNOX      MOCLDY    68  66  94 S5        30.10R
$$

KYZ035>037-039>044-047>052-055>060-089>105-301300-
NORTHEAST KENTUCKY

CITY           SKY/WX    TMP DP  RH WIND       PRES   REMARKS
LEXINGTON      CLEAR     68  65  90 S6        30.13R
COVINGTON      MOCLDY    67  66  97 S3        30.11R
FRANKFORT      PTCLDY    68  65  90 S6        30.12R
$$

KYZ054-064>069-076>088-106>120-301300-
SOUTHEAST KENTUCKY

CITY           SKY/WX    TMP DP  RH WIND       PRES   REMARKS
JACKSON        PTSUNNY   66  63  90 CALM      30.17R
LONDON         CLOUDY    67  62  84 CALM      30.17R HAZE
SOMERSET       HVY RAIN  66  64  94 S3        30.16S
MIDDLESBORO    CLOUDY    64  64  99 CALM      30.19R FOG
MONTICELLO     CLOUDY    68  68 100 CALM      30.18R FOG
$$



USA.gov is the U.S. government's official web portal to all federal, state and local government web resources and services.